Location: Mahannah Oil Field
(37.4664°N, 96.6003°W)
Time: 08:12:53
(UTC+00:00)

Vanguard 3 - Pass Details

Date: 30 January 2021
Orbit: 508 x 3261 km, 33.3° (Epoch: 24 February)

Event Time Altitude Azimuth Distance (km) Brightness Sun altitude
Exits shadow 11:47:46 30° 254° (WSW) 1,990 8.6 -20.7°
Maximum altitude 11:51:35 56° 191° (S) 1,695 8.6 -19.9°
Drops below altitude 10° 12:03:39 10° 118° (ESE) 4,855 12.2 -17.6°
Sets 12:08:32 0° 115° (ESE) 6,284 13.2 -16.6°
